Wetbulb
44.49 41.68 37.10 37.75 39.15 38.89 38.88 37.97 37.42 39.67 39.01 36.80 39.85 39.41 40.63 43.36 43.93 43.51 44.31 44.97 43.77 43.86 45.65 45.48 46.70 47.72 47.56 48.30 48.31 48.63 48.87 50.37 52.51 50.88 49.42 49.10 48.44 49.07 48.85 48.87 49.10 48.55 48.36 47.81
43.18 36.52 38.52 39.25 39.55 38.28 38.56 36.74 36.19 38.66 38.46 35.98 36.72 35.70 41.08 39.69 39.32 40.03 40.80 42.24 42.99 43.35 43.94 44.37 45.36 46.34 46.71 46.88 47.30 47.59 48.34 49.24 50.97 50.81 50.71 50.46 49.92 49.79 49.52 49.09 48.23 48.27 48.13 47.98
38.38 36.26 38.82 37.70 36.73 37.13 35.57 33.61 32.86 31.73 35.39 37.13 34.40 37.57 37.49 37.86 39.32 40.21 40.49 41.21 41.99 41.65 41.95 43.29 43.43 44.19 45.30 45.00 45.30 46.05 47.16 47.94 49.49 50.00 49.36 48.06 47.70 47.53 46.72 46.85 47.04 47.03 47.15 47.32
36.02 38.39 36.71 36.60 33.34 34.38 33.38 33.52 32.77 31.69 31.96 31.04 33.91 32.58 35.93 36.89 37.35 38.11 38.61 39.50 39.74 41.11 42.21 42.75 42.64 42.72 43.05 43.63 45.47 46.20 46.66 46.98 47.65 48.29 47.19 46.71 46.05 45.73 47.39 47.64 47.46 46.35 45.82 45.53
32.40 33.91 34.38 32.72 31.02 33.73 31.96 33.29 31.75 31.21 30.10 29.55 30.52 30.47 35.60 36.29 34.74 35.40 37.22 38.51 39.56 40.18 40.64 41.12 41.98 42.27 42.79 43.80 44.11 45.73 46.22 46.36 46.76 46.82 46.79 46.59 46.32 47.39 47.81 46.85 46.05 45.65 45.21 44.70
33.54 36.21 34.48 32.63 34.35 33.90 34.09 31.11 30.86 31.02 31.56 30.12 21.17 25.87 33.85 33.06 32.90 34.29 35.99 37.25 38.29 39.20 40.29 41.43 42.49 42.98 43.08 43.78 43.59 44.15 44.45 44.92 45.26 45.56 46.13 45.81 45.58 46.31 45.84 45.54 44.71 44.91 44.63 44.00
33.64 32.31 34.14 33.75 33.47 35.05 33.87 32.34 33.63 31.23 30.46 28.50 19.34 24.18 32.86 33.41 33.91 34.08 34.24 35.92 37.42 38.11 38.28 39.01 39.77 40.59 41.52 41.87 41.91 41.79 41.87 42.10 43.90 43.53 44.02 44.40 44.51 45.16 44.85 45.10 44.50 43.69 42.40 41.51
30.56 33.28 31.90 32.46 30.81 28.52 29.08 28.91 29.19 21.70 24.74 27.36 18.48 25.07 31.06 33.07 34.98 35.59 35.68 35.87 36.06 36.34 36.96 37.18 37.81 38.66 39.51 40.39 41.36 41.41 40.76 40.26 41.73 41.80 41.72 42.51 42.22 42.04 42.58 42.45 41.78 40.80 40.21 40.14
30.51 30.70 30.93 30.15 31.19 30.37 29.27 31.10 28.27 23.33 13.73 21.09 29.10 31.53 33.23 32.70 32.08 32.57 32.68 33.10 32.70 33.80 34.88 35.07 36.01 36.58 37.13 38.37 39.70 40.44 40.09 39.47 39.71 39.91 40.00 39.68 40.04 39.65 39.37 39.53 39.15 38.53 38.54 37.87
30.21 29.41 28.26 29.25 31.03 30.29 29.83 29.52 27.87 27.94 21.27 20.72 27.11 25.42 30.10 29.04 29.49 28.67 28.85 29.75 30.47 31.92 33.03 33.47 34.61 35.59 36.99 37.62 38.54 39.32 40.10 38.86 38.73 39.19 38.96 38.32 38.53 38.28 38.06 37.94 37.00 36.99 37.15 36.90
30.86 30.21 28.88 27.58 27.96 30.54 27.70 28.39 26.06 26.50 25.22 23.06 21.87 27.60 30.45 28.64 26.41 26.00 28.28 29.26 29.86 29.83 30.86 32.04 33.94 35.60 36.70 37.17 37.46 36.96 37.98 38.93 38.13 38.03 38.09 37.58 37.18 37.00 36.79 36.27 36.42 36.61 36.60 35.86
32.23 29.07 27.18 32.84 28.80 30.17 28.85 29.16 29.50 25.52 23.50 24.01 20.94 24.08 30.84 27.62 27.56 27.33 27.79 29.70 30.61 30.27 30.76 31.47 32.66 33.76 33.69 34.98 35.30 34.98 35.52 36.26 38.11 39.01 37.54 36.66 36.68 36.13 35.14 35.08 35.45 35.99 35.09 35.68
32.63 30.62 26.08 29.19 25.79 27.40 25.17 27.95 27.66 25.33 25.48 22.58 21.35 25.82 26.96 30.69 28.69 28.89 27.60 28.85 29.59 29.42 29.78 30.07 30.82 31.07 31.79 32.74 33.00 33.18 32.84 32.98 34.32 37.05 37.74 35.75 34.63 34.43 34.21 34.50 35.08 35.31 34.90 34.65
32.81 28.55 27.45 25.84 27.86 26.14 24.82 26.80 27.06 25.58 23.25 24.33 25.28 27.16 27.26 27.48 23.90 24.96 25.77 27.30 29.40 28.71 27.51 27.97 28.07 29.11 30.28 30.18 30.56 30.86 31.08 31.87 31.87 33.26 35.75 34.97 34.19 34.14 34.26 34.63 34.58 34.26 34.15 33.37
31.75 25.58 25.49 26.67 27.50 24.22 23.16 22.83 25.33 22.31 23.52 21.45 23.89 23.68 27.94 23.72 22.55 23.39 25.10 28.72 26.96 25.43 25.86 26.34 26.68 27.67 28.55 28.43 28.78 29.26 29.68 29.66 30.04 30.16 31.34 32.32 33.04 33.53 33.55 33.44 33.29 33.16 32.50 32.16
30.44 25.35 20.42 20.42 23.27 22.37 19.52 22.92 24.27 22.00 23.15 22.79 23.17 21.40 22.40 23.64 25.22 24.46 24.76 25.83 24.27 24.37 24.97 25.61 26.46 27.16 26.98 27.14 27.64 28.88 28.76 27.86 28.31 27.07 27.51 29.68 30.98 31.18 31.30 31.43 30.84 31.12 31.40 31.22
27.44 25.98 22.43 21.02 18.19 17.66 19.54 23.09 23.83 23.89 23.59 23.13 17.50 21.44 22.75 20.96 21.56 21.72 24.20 25.44 24.22 24.03 24.57 25.25 26.05 25.97 26.06 26.56 27.65 27.09 28.25 28.97 25.93 24.71 25.10 26.31 28.47 28.82 29.38 29.67 29.16 28.93 28.71 29.49
23.04 23.58 23.67 21.00 18.50 17.01 25.53 26.23 25.23 24.20 22.62 21.20 21.38 21.05 21.60 22.47 23.11 23.87 27.59 26.25 24.39 24.36 24.60 25.22 25.24 24.95 26.36 27.27 26.68 27.28 27.91 27.84 27.48 26.15 25.13 25.45 26.29 26.83 27.66 27.51 27.28 27.74 28.27 28.21
28.54 26.36 22.57 18.06 19.54 24.08 27.59 23.33 23.99 22.68 22.51 22.53 21.00 22.06 22.88 23.91 24.65 26.30 28.59 27.38 25.29 24.96 25.16 25.17 26.05 26.37 26.67 26.34 26.97 26.41 26.00 26.46 26.97 27.36 26.42 26.09 26.87 26.59 26.64 26.32 26.33 27.16 27.46 27.97
24.52 26.22 23.45 15.86 14.74 16.46 22.75 24.79 26.91 26.47 18.17 21.79 21.78 21.58 21.72 22.31 15.71 20.74 26.19 26.15 25.86 26.09 26.46 26.36 27.35 27.46 27.18 27.72 27.80 26.04 24.80 24.91 25.67 27.13 27.82 28.57 27.79 27.77 26.91 26.88 26.77 27.95 28.55 28.07
19.83 20.75 18.82 20.11 17.89 21.69 24.55 24.43 26.49 16.33 17.53 21.87 22.47 22.31 21.48 18.98 21.42 24.26 25.24 25.13 25.55 25.70 25.58 26.85 26.93 25.79 26.40 27.25 26.45 24.53 24.38 23.61 25.65 26.34 26.41 27.23 28.88 28.64 29.09 27.88 27.23 27.36 27.24 27.38
20.99 19.70 18.77 19.56 17.72 14.61 24.15 22.98 20.23 20.39 22.83 22.48 22.79 22.53 21.27 21.95 22.65 22.95 23.48 23.30 23.84 23.89 24.76 25.64 24.88 24.81 25.84 26.04 24.92 23.26 22.58 24.56 25.05 24.48 24.06 24.92 26.45 28.52 28.64 27.14 26.56 26.60 26.08 24.86
18.43 26.08 25.89 24.00 23.98 22.08 23.52 22.15 23.51 23.93 21.84 22.39 22.03 22.64 22.06 20.91 20.89 21.65 21.25 21.73 22.62 23.41 23.87 24.64 24.02 23.46 24.15 24.55 23.91 21.91 22.51 23.36 22.68 21.63 21.47 23.02 24.62 26.30 27.36 26.25 25.89 25.57 25.30 24.41
23.03 24.18 21.74 21.60 22.01 20.99 21.54 23.06 23.70 24.04 22.72 23.35 23.15 22.29 21.88 20.06 20.70 20.20 20.60 20.90 21.68 22.60 22.32 23.16 22.21 21.34 21.22 22.79 22.93 22.15 22.05 21.73 20.12 19.48 20.68 21.93 22.85 24.22 25.06 25.56 25.31 24.97 24.77 24.05
24.61 22.29 22.44 21.05 19.75 20.90 21.20 22.78 23.87 23.35 23.45 22.44 22.67 22.14 21.04 20.73 19.93 20.26 20.14 20.68 21.48 21.84 22.06 22.09 21.25 20.52 20.67 21.95 21.48 21.34 20.72 19.68 18.38 19.07 19.75 21.05 22.69 23.30 23.28 23.72 24.15 23.70 24.19 24.73
23.53 23.52 20.60 20.60 20.68 20.23 20.54 23.38 24.16 21.82 21.18 21.62 20.53 19.98 21.08 20.71 19.57 20.39 19.62 20.53 20.76 20.63 21.52 20.66 20.79 20.92 20.94 20.81 20.01 19.82 19.31 18.38 17.48 17.31 18.56 19.02 20.05 21.00 21.68 21.87 22.04 25.43 25.86 26.34
MSLP
1020.41 1020.52 1021.11 1021.66 1021.66 1021.51 1021.14 1020.75 1020.47 1020.50 1021.33 1020.62 1018.87 1017.97 1017.34 1016.88 1017.10 1017.52 1017.73 1018.16 1019.26 1020.06 1021.17 1021.95 1022.24 1022.44 1022.48 1022.29 1022.16 1021.83 1021.50 1021.17 1021.18 1021.39 1021.51 1021.46 1021.37 1021.48 1021.47 1021.72 1021.95 1022.21 1022.20 1022.36
1021.44 1022.26 1023.21 1023.18 1022.82 1022.50 1022.13 1022.01 1022.02 1021.70 1021.75 1021.38 1019.71 1018.39 1017.77 1018.36 1018.80 1019.28 1019.42 1019.47 1019.85 1020.53 1021.27 1021.97 1022.44 1022.67 1022.84 1022.79 1022.67 1022.36 1022.00 1021.62 1021.36 1021.55 1021.45 1021.36 1021.19 1021.10 1021.15 1021.32 1021.69 1021.90 1022.07 1022.26
1022.85 1024.38 1024.35 1024.05 1023.95 1023.53 1023.71 1023.84 1023.86 1023.76 1022.65 1021.79 1020.83 1018.32 1018.23 1018.98 1019.57 1020.09 1020.39 1020.62 1020.87 1021.54 1021.96 1022.33 1022.84 1023.11 1023.30 1023.39 1023.32 1023.08 1022.69 1022.33 1021.91 1021.79 1021.76 1021.83 1021.76 1021.58 1021.51 1021.56 1021.71 1021.88 1022.03 1022.13
1024.96 1025.35 1025.20 1025.04 1025.36 1025.54 1025.24 1025.74 1025.41 1025.01 1024.22 1022.78 1022.23 1020.08 1018.71 1019.27 1019.85 1020.55 1021.19 1021.58 1021.97 1022.16 1022.50 1022.92 1023.24 1023.41 1023.60 1023.75 1023.69 1023.42 1023.07 1022.75 1022.42 1022.21 1022.16 1021.87 1021.48 1021.02 1020.73 1020.84 1021.27 1021.60 1021.88 1021.92
1026.70 1026.54 1026.40 1026.44 1026.89 1026.75 1026.59 1026.54 1026.08 1025.65 1025.25 1024.57 1023.46 1022.48 1019.42 1019.79 1020.44 1021.54 1022.15 1022.56 1022.88 1023.13 1023.19 1023.33 1023.60 1023.77 1023.88 1023.88 1023.89 1023.61 1023.30 1023.00 1022.76 1022.52 1022.25 1021.85 1021.47 1021.12 1020.90 1021.18 1021.46 1021.67 1021.80 1021.96
1027.20 1027.84 1027.92 1028.13 1027.93 1027.78 1027.56 1027.09 1026.48 1026.07 1025.66 1025.72 1025.50 1024.52 1021.12 1021.15 1022.27 1022.79 1023.25 1023.52 1023.66 1023.81 1023.72 1023.68 1023.78 1023.86 1023.81 1023.92 1023.90 1023.77 1023.43 1023.08 1022.93 1022.78 1022.50 1022.19 1021.73 1021.27 1021.17 1021.18 1021.28 1021.33 1021.45 1021.54
1027.22 1028.06 1028.63 1028.87 1028.08 1027.91 1027.54 1027.44 1026.90 1026.46 1026.16 1026.09 1026.81 1025.58 1022.37 1022.94 1023.60 1024.19 1024.36 1024.37 1024.45 1024.61 1024.46 1024.30 1024.17 1024.12 1023.97 1023.87 1023.84 1023.68 1023.48 1023.23 1023.04 1022.94 1022.63 1022.29 1021.92 1021.53 1021.34 1021.12 1021.10 1021.02 1021.22 1021.33
1028.13 1028.50 1029.33 1029.66 1029.54 1029.34 1028.72 1028.53 1028.15 1027.74 1027.17 1026.63 1027.14 1025.05 1023.66 1024.35 1024.73 1025.10 1025.44 1025.57 1025.59 1025.55 1025.41 1025.22 1025.01 1024.73 1024.47 1024.22 1023.98 1023.77 1023.59 1023.29 1023.02 1022.78 1022.58 1022.46 1022.30 1022.02 1021.61 1021.37 1021.25 1021.24 1021.25 1021.26
1029.07 1029.24 1030.07 1030.45 1030.41 1030.46 1029.55 1029.34 1029.23 1028.65 1028.94 1027.72 1025.15 1024.03 1024.27 1025.33 1025.99 1026.44 1026.64 1026.77 1026.90 1026.83 1026.56 1026.23 1025.79 1025.50 1025.08 1024.62 1024.26 1023.92 1023.65 1023.38 1023.02 1022.73 1022.50 1022.19 1021.94 1021.77 1021.58 1021.44 1021.40 1021.28 1021.26 1021.33
1029.80 1030.11 1030.19 1030.68 1030.90 1030.84 1030.54 1030.30 1029.95 1029.12 1028.04 1026.54 1024.82 1024.66 1024.21 1026.12 1027.30 1027.82 1027.98 1028.24 1028.41 1028.22 1027.59 1027.20 1026.69 1026.09 1025.46 1024.95 1024.42 1023.89 1023.51 1023.15 1022.82 1022.47 1022.11 1021.84 1021.54 1021.50 1021.50 1021.44 1021.36 1021.23 1021.18 1021.29
1030.27 1030.80 1030.37 1030.59 1030.50 1030.25 1030.89 1030.47 1030.24 1029.73 1028.46 1027.18 1025.81 1024.63 1025.66 1027.20 1028.62 1029.25 1029.57 1029.45 1029.23 1029.02 1028.50 1028.02 1027.39 1026.73 1026.07 1025.47 1024.84 1024.34 1023.57 1022.88 1022.39 1022.04 1021.81 1021.47 1021.24 1021.04 1021.03 1021.00 1020.88 1020.82 1020.88 1020.97
1030.64 1030.66 1030.24 1029.62 1030.10 1030.41 1030.43 1030.25 1029.87 1029.49 1028.85 1028.33 1028.12 1026.35 1027.31 1028.56 1029.36 1029.92 1029.81 1029.79 1029.70 1029.77 1029.48 1029.03 1028.35 1027.59 1026.91 1026.08 1025.49 1024.90 1024.20 1023.41 1022.55 1021.71 1021.32 1021.11 1020.95 1020.60 1020.48 1020.47 1020.40 1020.36 1020.41 1020.45
1030.92 1030.95 1030.49 1029.85 1030.69 1030.82 1030.73 1030.37 1030.18 1030.05 1029.48 1028.20 1028.40 1027.00 1028.30 1028.99 1029.74 1030.27 1030.44 1030.47 1030.43 1030.31 1029.89 1029.47 1028.86 1028.16 1027.36 1026.51 1025.90 1025.16 1024.52 1023.79 1022.99 1021.89 1020.97 1020.63 1020.51 1020.18 1019.92 1019.77 1019.72 1019.78 1019.89 1019.93
1031.69 1031.34 1031.14 1030.70 1030.70 1030.98 1030.68 1030.14 1030.13 1030.21 1029.60 1027.76 1027.47 1027.33 1028.52 1029.43 1030.09 1030.49 1030.73 1030.80 1030.70 1030.59 1030.24 1029.65 1028.87 1028.12 1027.33 1026.75 1026.12 1025.41 1024.60 1023.88 1023.00 1022.02 1021.00 1020.48 1020.24 1019.80 1019.37 1019.25 1019.16 1019.16 1019.31 1019.45
1032.12 1031.85 1031.63 1030.60 1030.71 1030.99 1030.47 1029.77 1029.75 1029.73 1028.80 1028.99 1027.04 1028.44 1029.07 1030.39 1031.20 1031.44 1031.34 1030.85 1030.67 1030.38 1030.03 1029.36 1028.76 1028.07 1027.45 1026.81 1026.14 1025.35 1024.44 1023.72 1023.13 1022.20 1021.21 1020.39 1020.03 1019.88 1019.62 1019.20 1019.09 1019.12 1019.21 1019.20
1032.82 1032.73 1033.04 1031.91 1031.32 1031.14 1030.58 1029.02 1029.39 1029.49 1029.43 1029.40 1029.31 1029.46 1030.74 1031.49 1031.85 1031.67 1031.28 1030.99 1030.72 1030.33 1029.54 1028.96 1028.48 1027.99 1027.49 1026.88 1025.99 1025.18 1024.39 1023.62 1023.00 1022.20 1021.14 1020.37 1019.79 1019.49 1019.48 1019.58 1019.46 1019.20 1018.95 1019.02
1033.49 1033.57 1033.68 1032.16 1031.89 1031.35 1030.09 1028.32 1028.48 1028.83 1029.41 1029.78 1030.52 1030.88 1031.42 1031.75 1031.96 1031.79 1031.11 1030.95 1030.52 1029.90 1029.56 1029.17 1028.78 1028.27 1027.66 1026.80 1026.04 1025.02 1024.13 1023.29 1022.76 1021.98 1020.94 1020.15 1019.26 1019.03 1018.55 1018.74 1018.82 1018.73 1018.63 1018.79
1033.62 1033.85 1033.75 1032.34 1031.95 1030.45 1028.23 1028.38 1028.99 1029.25 1029.73 1030.60 1031.08 1031.67 1032.02 1032.01 1031.93 1031.16 1030.59 1030.63 1030.16 1029.76 1029.38 1028.95 1028.51 1027.92 1027.25 1026.37 1025.55 1024.80 1023.91 1022.90 1021.96 1021.09 1020.62 1020.04 1019.38 1018.84 1018.69 1018.32 1018.15 1018.01 1018.17 1018.28
1034.02 1034.04 1033.60 1033.07 1031.32 1028.37 1027.12 1028.21 1028.77 1029.29 1029.72 1030.86 1031.47 1031.78 1031.85 1031.72 1031.27 1030.29 1030.09 1030.11 1029.95 1029.56 1029.06 1028.60 1028.11 1027.35 1026.42 1025.76 1025.17 1024.54 1023.63 1022.70 1021.55 1020.50 1019.70 1019.33 1019.08 1018.42 1018.00 1017.91 1017.59 1017.50 1017.61 1017.38
1034.80 1034.56 1034.10 1033.75 1032.08 1029.33 1028.28 1028.95 1029.19 1029.62 1030.26 1031.26 1031.72 1031.79 1031.73 1031.63 1030.78 1030.10 1030.19 1030.16 1029.65 1029.40 1028.82 1028.15 1027.60 1026.97 1026.19 1025.43 1024.90 1024.17 1023.40 1022.60 1021.48 1020.42 1019.38 1018.67 1018.28 1017.98 1017.24 1016.80 1016.61 1016.38 1016.44 1016.37
1034.51 1034.38 1033.58 1032.58 1031.66 1029.66 1028.98 1029.56 1029.94 1030.64 1031.32 1031.52 1031.92 1031.95 1031.94 1031.88 1031.63 1030.51 1030.38 1029.96 1029.64 1029.00 1028.43 1027.89 1027.26 1026.64 1025.92 1025.35 1024.75 1023.85 1023.08 1022.35 1021.52 1020.55 1019.58 1018.56 1017.69 1017.11 1016.49 1015.95 1015.77 1015.88 1015.83 1015.91
1032.16 1032.35 1032.35 1032.34 1031.97 1030.71 1030.10 1030.58 1031.07 1031.43 1031.55 1031.87 1032.03 1032.11 1031.96 1031.71 1031.20 1030.80 1030.38 1029.95 1029.47 1028.79 1028.17 1027.70 1027.03 1026.27 1025.55 1025.17 1024.61 1023.78 1022.96 1022.23 1021.43 1020.62 1019.72 1018.57 1017.42 1016.47 1015.88 1015.55 1015.30 1015.44 1015.66 1015.74
1031.53 1030.29 1030.45 1030.59 1029.99 1030.56 1031.02 1031.41 1032.02 1032.27 1032.39 1032.48 1032.48 1032.42 1032.24 1031.77 1031.23 1030.77 1030.28 1029.82 1029.17 1028.70 1028.15 1027.66 1027.09 1026.33 1025.36 1024.92 1024.61 1023.81 1022.91 1022.24 1021.35 1020.43 1019.46 1018.42 1017.31 1016.40 1015.72 1015.39 1015.05 1014.95 1015.15 1015.31
1030.55 1030.48 1030.72 1030.72 1030.44 1031.06 1031.71 1032.15 1032.49 1032.61 1032.78 1032.87 1032.91 1032.71 1032.48 1031.94 1031.42 1030.79 1030.38 1029.72 1029.11 1028.49 1027.96 1027.50 1026.89 1026.16 1025.22 1024.70 1024.20 1023.81 1023.03 1022.32 1021.60 1020.55 1019.40 1018.39 1017.35 1016.30 1015.65 1015.18 1014.79 1014.56 1014.53 1014.53
1030.60 1030.90 1030.48 1030.62 1031.13 1031.75 1032.22 1032.49 1032.44 1032.72 1032.87 1033.15 1033.08 1032.91 1032.75 1032.30 1031.60 1031.15 1030.45 1029.81 1029.17 1028.52 1027.87 1027.39 1026.83 1026.08 1025.17 1024.59 1023.92 1023.45 1022.88 1022.30 1021.49 1020.51 1019.47 1018.32 1017.39 1016.55 1015.69 1015.11 1014.63 1014.20 1013.98 1014.04
1030.34 1030.03 1030.76 1030.63 1031.39 1031.77 1032.15 1032.54 1032.75 1032.92 1033.17 1033.26 1033.22 1032.73 1032.70 1032.57 1031.92 1031.31 1030.67 1030.04 1029.43 1028.54 1027.78 1027.14 1026.56 1025.89 1025.10 1024.50 1023.77 1023.22 1022.73 1022.24 1021.56 1020.43 1019.37 1018.46 1017.49 1016.60 1015.86 1015.04 1014.26 1013.96 1013.57 1013.44
Wind_Speed
7 9 9 10 8 5 6 6 8 6 6 11 9 16 17 11 8 10 9 6 2 3 5 3 5 6 8 8 9 10 10 9 6 6 6 6 6 6 6 5 6 6 5 6
5 9 8 5 6 4 6 4 6 2 3 7 10 19 7 11 9 9 9 10 8 4 2 3 5 6 8 9 10 11 10 9 6 6 5 6 4 4 5 4 5 6 6 6
8 6 6 3 9 6 7 5 6 5 13 5 15 6 9 10 13 12 13 10 8 6 7 7 8 9 9 10 11 11 11 9 7 7 5 4 3 3 4 5 5 5 5 5
7 5 5 4 5 8 1 5 5 7 8 4 9 0 7 10 12 15 14 14 14 10 7 7 8 9 9 9 9 10 9 8 5 6 7 9 7 7 6 4 4 4 5 5
4 6 7 5 3 6 3 5 4 3 3 5 4 2 7 9 11 15 15 15 14 12 8 9 9 9 8 8 9 9 9 8 7 7 8 8 9 7 5 4 5 6 5 5
4 1 4 5 5 3 7 4 3 2 1 2 2 5 3 5 6 10 14 15 15 13 12 10 9 9 9 9 10 10 10 9 7 8 9 10 11 10 7 7 6 6 5 5
1 3 2 4 4 2 7 3 3 2 2 2 1 5 4 5 8 11 12 14 14 14 14 14 15 13 13 13 11 10 10 11 9 9 9 9 10 10 10 9 6 7 5 5
4 2 3 7 4 3 5 2 2 5 4 6 2 6 3 8 11 10 12 12 14 15 14 15 16 15 15 15 14 13 12 13 11 10 10 9 9 7 7 7 6 5 5 5
5 1 3 4 2 3 2 0 2 2 1 3 3 4 9 8 6 12 14 14 15 15 15 17 18 17 16 15 15 15 14 14 13 12 10 10 10 9 8 8 7 5 5 5
3 5 1 1 1 4 2 3 1 2 4 6 5 5 6 6 2 9 13 12 13 12 14 16 16 17 15 14 14 14 13 14 14 13 12 11 10 9 8 7 8 8 7 6
2 0 1 1 5 3 3 2 1 3 3 5 6 3 1 8 5 6 5 9 8 11 16 15 15 15 15 15 15 16 16 15 15 13 13 12 11 9 9 8 9 8 7 7
3 3 5 1 3 2 1 3 4 4 2 3 4 8 5 7 2 2 7 9 10 8 10 12 15 16 17 17 16 16 16 17 17 16 14 13 12 10 10 10 9 8 8 8
1 1 5 3 2 2 4 5 4 1 3 9 8 5 3 2 5 6 8 9 8 9 13 13 13 14 15 16 16 16 15 15 16 17 14 14 13 12 11 11 10 9 9 9
1 3 5 8 3 3 5 7 9 7 6 9 14 15 6 7 9 11 11 9 7 10 12 13 13 13 15 16 16 17 18 16 15 14 14 14 14 13 12 11 10 9 9 8
2 6 3 11 7 5 9 15 11 14 14 10 18 13 6 6 7 8 10 9 10 13 13 13 13 13 14 14 15 15 16 16 14 15 13 14 13 11 10 11 9 7 6 7
1 2 2 6 4 7 13 23 14 14 16 17 19 20 5 5 6 8 12 9 10 13 16 17 16 17 17 18 18 18 18 17 14 15 15 14 13 10 10 8 7 7 8 6
2 2 2 6 5 10 9 8 9 4 6 4 6 4 8 7 10 13 10 9 12 17 18 17 17 17 17 18 19 20 19 17 15 15 16 15 12 12 9 8 7 9 8 7
5 3 2 5 4 6 1 2 4 4 3 2 4 5 6 7 9 15 8 8 15 15 17 15 15 16 17 16 17 16 19 20 17 15 16 16 11 10 9 8 10 10 8 10
5 3 3 5 4 9 7 3 1 2 2 1 4 6 9 11 14 13 11 15 17 17 16 15 15 16 17 17 16 17 17 19 19 18 13 14 10 9 11 12 11 9 8 10
3 3 4 2 6 9 4 4 3 1 6 3 5 9 13 15 12 12 17 17 17 17 16 17 18 18 19 18 18 18 18 18 19 19 17 16 11 13 12 12 12 9 9 8
4 4 9 9 8 9 5 1 1 3 3 4 7 10 13 12 12 19 18 18 17 17 18 19 18 17 18 17 17 18 18 18 18 19 19 18 16 15 14 11 10 8 6 6
8 8 7 3 5 11 2 2 5 4 3 6 9 11 14 16 17 18 19 18 19 19 19 19 17 17 18 16 15 18 19 19 18 18 18 18 18 11 10 10 8 5 4 5
6 6 2 9 4 3 3 6 4 4 6 8 11 13 15 17 18 18 17 19 17 19 17 16 16 18 18 16 14 17 19 19 19 18 17 17 16 13 9 9 7 5 5 6
6 4 5 2 4 4 5 2 2 5 7 10 11 14 16 18 17 19 16 17 16 17 16 15 17 18 18 16 16 15 17 17 17 18 17 15 14 13 10 7 7 6 6 6
1 5 3 5 2 2 6 5 6 7 9 10 11 13 16 16 18 19 17 18 17 17 15 15 15 17 18 17 17 15 15 15 15 15 14 13 10 11 9 8 8 6 7 8
6 3 4 3 4 1 1 3 6 7 9 10 14 16 13 14 17 18 16 16 15 16 16 16 16 16 17 17 17 16 14 13 14 15 11 10 10 9 8 8 8 12 16 17
Wind_Direction
36 58 41 20 18 7 341 343 340 17 23 326 300 306 313 330 346 339 307 284 296 301 55 6 360 351 345 344 335 330 314 291 248 233 232 235 237 227 232 229 230 231 235 236
75 60 15 354 6 351 2 344 5 293 324 313 326 310 49 37 35 28 17 14 9 336 307 3 348 345 352 346 346 339 326 304 261 249 254 265 271 259 245 227 225 228 230 231
63 25 335 341 28 356 46 18 359 320 315 239 321 114 97 76 74 65 43 31 18 12 348 348 352 352 353 354 348 340 335 319 289 255 263 256 262 258 231 223 225 220 235 233
64 13 7 35 67 353 294 3 318 318 336 320 12 265 130 112 79 50 39 28 21 5 358 350 347 348 348 346 340 338 336 329 303 278 263 263 266 264 244 242 213 200 218 226
46 10 16 46 12 344 11 330 318 328 303 316 35 266 104 158 62 45 39 33 25 15 0 346 339 337 333 339 335 334 332 327 316 288 267 273 263 274 288 247 236 226 213 233
80 64 24 351 314 318 325 306 286 241 191 249 54 349 57 38 21 50 35 24 20 13 8 2 347 335 339 340 335 331 328 319 315 303 289 279 274 274 262 247 241 231 227 215
178 54 51 353 304 189 352 316 328 262 264 308 3 269 352 46 69 56 26 15 15 12 9 3 359 351 343 338 331 322 320 310 309 302 293 285 282 278 271 265 250 248 235 225
17 245 13 355 30 339 14 14 14 297 291 332 180 238 118 95 108 58 34 24 15 13 12 14 9 2 350 339 328 319 310 302 297 287 282 281 278 275 272 268 261 255 251 244
339 246 112 40 347 324 61 92 37 111 119 254 261 246 122 119 76 19 25 22 18 13 16 13 8 1 351 345 335 322 310 300 292 283 279 271 267 261 261 255 250 248 242 242
65 289 89 132 259 64 319 82 203 174 281 274 205 256 280 184 69 2 17 16 3 5 13 5 358 352 348 341 335 324 307 292 285 281 267 263 256 253 258 259 251 248 246 240
107 297 187 181 195 155 151 190 209 317 257 278 299 240 359 107 59 356 339 353 2 2 1 353 347 345 341 338 340 333 320 302 286 274 266 257 252 248 245 242 243 240 242 238
58 313 275 259 110 357 283 268 229 251 216 248 303 275 85 105 85 342 351 354 354 355 343 339 339 338 337 334 335 333 323 315 303 282 270 258 251 243 235 238 238 234 234 235
66 242 301 219 165 164 226 203 211 4 298 239 259 262 184 110 54 24 357 346 340 339 343 338 332 331 326 329 327 327 321 314 309 300 276 263 253 245 241 237 236 230 233 237
257 268 244 266 348 347 253 224 218 208 252 271 240 270 232 346 6 357 342 341 337 340 335 329 327 329 335 333 328 326 324 320 314 302 289 273 264 254 244 242 236 229 227 232
255 257 283 273 273 242 260 262 227 214 238 254 273 280 313 11 345 325 309 326 342 337 328 330 324 323 323 321 319 316 316 318 313 299 283 271 267 271 271 255 245 243 242 236
162 283 10 277 322 288 268 268 258 234 252 260 271 283 32 323 311 325 320 333 323 323 332 329 324 324 325 323 318 318 316 313 316 302 286 277 266 249 242 263 268 257 247 247
229 284 327 268 356 318 267 265 227 187 195 223 234 25 359 340 332 323 311 313 315 329 319 319 322 322 320 315 318 315 312 307 305 301 293 281 264 256 240 238 233 243 242 255
155 172 209 280 315 251 26 108 337 236 234 214 311 354 342 318 310 290 284 283 323 320 322 321 318 314 310 309 308 313 318 313 306 299 303 295 280 268 267 241 239 240 230 236
223 213 248 267 243 294 260 120 38 308 145 62 320 330 329 331 315 312 353 336 322 320 320 315 311 310 312 313 317 317 313 311 310 307 296 296 283 262 264 257 247 236 227 232
205 312 246 152 260 291 79 100 19 315 248 57 346 329 331 332 314 315 329 323 317 316 315 314 314 315 311 317 320 317 316 316 314 315 314 311 292 274 264 257 256 236 220 228
165 207 231 237 261 277 85 16 216 240 24 359 334 323 319 311 298 310 319 317 314 315 315 314 317 312 311 318 320 317 315 314 315 315 314 310 299 280 274 262 250 234 225 228
186 185 206 209 251 268 105 155 227 37 8 335 326 320 311 307 308 309 313 313 312 313 314 316 312 312 313 320 323 315 314 316 317 314 312 308 309 290 280 259 248 234 237 243
248 222 261 206 230 114 56 89 77 1 325 320 316 315 311 308 307 308 312 311 310 309 309 310 309 310 310 320 320 314 314 317 317 316 312 313 310 306 295 274 257 235 227 241
222 168 235 346 133 175 152 112 326 316 308 315 316 308 310 308 309 307 310 308 308 306 307 310 309 311 309 315 316 312 313 316 316 313 315 315 312 310 300 275 258 244 238 235
6 154 215 253 163 152 203 268 315 321 314 315 310 306 307 309 306 306 305 303 303 303 305 305 306 308 305 310 311 314 315 318 313 309 312 313 313 314 302 286 275 256 247 244
184 217 219 307 108 330 152 308 315 317 314 313 314 311 308 301 301 303 301 298 299 299 301 302 303 305 307 310 308 310 313 314 312 311 311 312 308 307 299 297 292 276 270 269